timestamp,wind_dir_avg,wind_spd_avg,wind_spd_max_dir,wind_spd_gust,battery_voltage,lat,long
2023-08-03 00:04:01+00:00,209.0,5.83,203.0,6.78,12.65,47.59359,-54.27349
2023-08-03 00:14:01+00:00,216.0,5.4,218.0,6.26,12.41,47.59359,-54.27349
2023-08-03 00:24:01+00:00,215.0,5.48,215.0,6.41,12.41,47.59359,-54.27349
2023-08-03 00:34:01+00:00,220.0,4.28,222.0,4.89,12.41,47.59359,-54.27349
2023-08-03 00:44:01+00:00,228.0,3.95,234.0,4.94,12.41,47.59359,-54.27349
2023-08-03 00:54:01+00:00,224.0,4.28,223.0,4.96,12.41,47.59359,-54.27349
2023-08-03 01:04:01+00:00,225.0,3.57,227.0,4.18,12.41,47.59359,-54.27349
2023-08-03 01:14:01+00:00,222.0,3.63,220.0,4.18,12.41,47.59359,-54.27349
2023-08-03 01:24:01+00:00,224.0,3.39,232.0,4.18,12.41,47.59359,-54.27349
2023-08-03 01:34:01+00:00,207.0,3.06,204.0,3.47,12.41,47.59359,-54.27349
2023-08-03 01:44:01+00:00,230.0,2.9,231.0,3.89,12.41,47.59359,-54.27349
2023-08-03 01:54:01+00:00,221.0,2.95,212.0,3.41,12.41,47.59359,-54.27349
2023-08-03 02:04:01+00:00,219.0,3.58,215.0,4.31,12.41,47.59359,-54.27349
2023-08-03 02:14:00+00:00,210.0,4.02,214.0,4.47,12.41,47.59359,-54.27349
2023-08-03 02:24:00+00:00,219.0,3.64,216.0,4.25,12.41,47.59359,-54.27349
2023-08-03 02:34:00+00:00,216.0,3.09,209.0,3.5,12.41,47.59359,-54.27349
2023-08-03 02:44:00+00:00,206.0,3.65,209.0,4.39,12.41,47.59359,-54.27349
2023-08-03 02:54:00+00:00,201.0,4.84,198.0,5.38,12.41,47.59359,-54.27349
2023-08-03 03:04:00+00:00,207.0,5.08,208.0,5.47,12.41,47.59359,-54.27349
2023-08-03 03:14:00+00:00,214.0,4.79,215.0,5.33,12.41,47.59359,-54.27349
2023-08-03 03:24:00+00:00,228.0,3.66,229.0,4.26,12.41,47.59359,-54.27349
2023-08-03 03:34:00+00:00,233.0,3.55,236.0,4.71,12.41,47.59359,-54.27349
2023-08-03 03:44:00+00:00,245.0,4.22,247.0,5.02,12.41,47.59359,-54.27349
2023-08-03 03:54:00+00:00,233.0,4.06,237.0,4.89,12.41,47.59359,-54.27349
2023-08-03 04:04:00+00:00,231.0,3.72,229.0,4.12,12.41,47.59359,-54.27349
2023-08-03 04:14:00+00:00,237.0,3.92,240.0,4.64,12.33,47.59359,-54.27349
2023-08-03 04:24:00+00:00,222.0,3.6,218.0,4.01,12.33,47.59359,-54.27349
2023-08-03 04:34:00+00:00,220.0,3.31,219.0,3.76,12.33,47.59359,-54.27349
2023-08-03 04:44:00+00:00,216.0,3.35,213.0,3.91,12.33,47.59359,-54.27349
2023-08-03 04:54:00+00:00,208.0,3.59,211.0,4.32,12.33,47.59359,-54.27349
2023-08-03 05:04:00+00:00,212.0,4.48,214.0,5.05,12.33,47.59359,-54.27349
2023-08-03 05:14:00+00:00,208.0,4.22,210.0,4.91,12.33,47.59359,-54.27349
2023-08-03 05:24:00+00:00,209.0,4.62,210.0,5.02,12.33,47.59359,-54.27349
2023-08-03 05:34:00+00:00,213.0,4.64,211.0,5.03,12.33,47.59359,-54.27349
2023-08-03 05:44:00+00:00,212.0,4.18,214.0,5.1,12.33,47.59359,-54.27349
2023-08-03 05:54:00+00:00,213.0,4.76,212.0,5.29,12.33,47.59359,-54.27349
2023-08-03 06:04:00+00:00,217.0,4.81,214.0,5.23,12.33,47.59359,-54.27349
2023-08-03 06:14:01+00:00,215.0,4.8,218.0,5.27,12.33,47.59359,-54.27349
2023-08-03 06:24:01+00:00,218.0,3.85,215.0,4.53,12.33,47.59359,-54.27349
2023-08-03 06:34:01+00:00,214.0,4.0,214.0,4.5,12.33,47.59359,-54.27349
2023-08-03 06:44:01+00:00,214.0,3.7,215.0,4.2,12.33,47.59359,-54.27349
2023-08-03 06:54:01+00:00,208.0,3.91,202.0,4.66,12.33,47.59359,-54.27349
2023-08-03 07:04:01+00:00,219.0,3.44,220.0,3.88,12.33,47.59359,-54.27349
2023-08-03 07:14:01+00:00,232.0,3.04,237.0,3.61,12.33,47.59359,-54.27349
2023-08-03 07:24:01+00:00,232.0,3.34,230.0,3.77,12.33,47.59359,-54.27349
2023-08-03 07:34:01+00:00,233.0,3.78,230.0,4.3,12.33,47.59359,-54.27349
2023-08-03 07:44:01+00:00,245.0,3.74,248.0,4.04,12.33,47.59359,-54.27349
2023-08-03 07:54:01+00:00,248.0,3.92,249.0,4.19,12.33,47.59359,-54.27349
2023-08-03 08:04:01+00:00,252.0,3.95,253.0,4.13,12.33,47.59359,-54.27349
2023-08-03 08:14:00+00:00,246.0,3.64,250.0,4.04,12.25,47.59359,-54.27349
2023-08-03 08:24:00+00:00,248.0,3.55,248.0,3.89,12.25,47.59359,-54.27349
2023-08-03 08:34:00+00:00,242.0,3.65,239.0,4.09,12.25,47.59359,-54.27349
2023-08-03 08:44:00+00:00,249.0,2.94,254.0,3.28,12.25,47.59359,-54.27349
2023-08-03 08:54:00+00:00,234.0,2.85,239.0,3.12,12.25,47.59359,-54.27349
2023-08-03 09:04:00+00:00,230.0,2.69,233.0,3.05,12.25,47.59359,-54.27349
2023-08-03 09:14:00+00:00,244.0,2.64,248.0,2.88,12.41,47.59359,-54.27349
2023-08-03 09:24:00+00:00,255.0,2.49,250.0,2.94,12.41,47.59359,-54.27349
2023-08-03 09:34:00+00:00,254.0,2.77,252.0,2.98,12.41,47.59359,-54.27349
2023-08-03 09:44:00+00:00,253.0,2.85,252.0,3.1,12.41,47.59359,-54.27349
2023-08-03 09:54:00+00:00,258.0,2.65,259.0,3.1,12.41,47.59359,-54.27349
2023-08-03 10:04:00+00:00,248.0,2.48,251.0,2.84,12.41,47.59359,-54.27349
2023-08-03 10:14:01+00:00,253.0,2.99,250.0,3.26,13.29,47.59359,-54.27349
2023-08-03 10:24:01+00:00,251.0,2.59,252.0,2.82,13.29,47.59359,-54.27349
2023-08-03 10:34:01+00:00,252.0,2.18,261.0,2.88,13.29,47.59359,-54.27349
2023-08-03 10:44:01+00:00,258.0,2.08,264.0,2.87,13.29,47.59359,-54.27349
2023-08-03 10:54:01+00:00,266.0,2.6,267.0,3.09,13.29,47.59359,-54.27349
2023-08-03 11:04:01+00:00,261.0,2.25,271.0,2.81,13.29,47.59359,-54.27349
2023-08-03 11:14:01+00:00,263.0,2.16,259.0,2.39,13.6,47.59359,-54.27349
2023-08-03 11:24:01+00:00,247.0,2.21,241.0,2.48,13.6,47.59359,-54.27349
2023-08-03 11:34:01+00:00,232.0,2.21,228.0,2.56,13.6,47.59359,-54.27349
2023-08-03 11:44:01+00:00,246.0,2.27,243.0,2.71,13.6,47.59359,-54.27349
2023-08-03 11:54:01+00:00,239.0,1.99,241.0,2.28,13.6,47.59359,-54.27349
2023-08-03 12:04:01+00:00,240.0,2.07,243.0,2.31,13.6,47.59359,-54.27349
2023-08-03 12:14:00+00:00,241.0,1.78,248.0,2.18,13.92,47.59359,-54.27349
2023-08-03 12:24:00+00:00,229.0,2.66,230.0,2.9,13.92,47.59359,-54.27349
2023-08-03 12:34:00+00:00,219.0,2.25,217.0,2.58,13.92,47.59359,-54.27349
2023-08-03 12:44:00+00:00,195.0,2.81,196.0,3.27,13.92,47.59359,-54.27349
2023-08-03 12:54:00+00:00,184.0,3.95,182.0,4.51,13.92,47.59359,-54.27349
2023-08-03 13:04:00+00:00,192.0,4.23,193.0,4.55,13.92,47.59359,-54.27349
2023-08-03 13:14:00+00:00,192.0,4.12,194.0,4.59,14.32,47.59359,-54.27349
2023-08-03 13:24:00+00:00,194.0,4.0,191.0,4.75,14.32,47.59359,-54.27349
2023-08-03 13:34:00+00:00,201.0,4.61,200.0,5.02,14.32,47.59359,-54.27349
2023-08-03 13:44:00+00:00,205.0,4.98,206.0,5.24,14.32,47.59359,-54.27349
2023-08-03 13:54:00+00:00,208.0,5.76,212.0,6.19,14.32,47.59359,-54.27349
2023-08-03 14:04:00+00:00,201.0,6.82,199.0,7.38,14.32,47.59359,-54.27349
2023-08-03 14:14:00+00:00,200.0,6.85,202.0,7.59,14.32,47.59359,-54.27349
2023-08-03 14:24:00+00:00,200.0,7.44,203.0,7.96,14.32,47.59359,-54.27349
2023-08-03 14:34:00+00:00,203.0,7.92,206.0,8.96,14.32,47.59359,-54.27349
2023-08-03 14:44:00+00:00,204.0,8.02,207.0,8.64,14.32,47.59359,-54.27349
2023-08-03 14:54:00+00:00,200.0,6.9,204.0,7.73,14.32,47.59359,-54.27349
2023-08-03 15:04:00+00:00,203.0,7.93,203.0,8.75,14.32,47.59359,-54.27349
2023-08-03 15:14:01+00:00,207.0,8.58,209.0,9.35,14.32,47.59359,-54.27349
2023-08-03 15:24:01+00:00,204.0,8.14,206.0,9.14,14.32,47.59359,-54.27349
2023-08-03 15:34:01+00:00,205.0,8.15,207.0,9.26,14.32,47.59359,-54.27349
2023-08-03 15:44:01+00:00,203.0,8.12,213.0,9.08,14.32,47.59359,-54.27349
2023-08-03 15:54:01+00:00,198.0,8.02,196.0,8.91,14.32,47.59359,-54.27349
2023-08-03 16:04:01+00:00,202.0,8.63,206.0,9.64,14.32,47.59359,-54.27349
2023-08-03 16:14:00+00:00,205.0,8.22,206.0,9.43,13.68,47.59359,-54.27349
2023-08-03 16:24:00+00:00,207.0,8.78,207.0,9.78,13.68,47.59359,-54.27349
2023-08-03 16:34:00+00:00,205.0,8.79,212.0,9.82,13.68,47.59359,-54.27349
2023-08-03 16:44:00+00:00,210.0,8.86,211.0,9.91,13.68,47.59359,-54.27349
2023-08-03 16:54:00+00:00,205.0,8.86,210.0,9.77,13.68,47.59359,-54.27349
2023-08-03 17:04:00+00:00,203.0,9.27,203.0,10.4,13.68,47.59359,-54.27349
2023-08-03 17:14:00+00:00,202.0,9.66,201.0,10.62,14.32,47.59359,-54.27349
2023-08-03 17:24:00+00:00,209.0,9.15,212.0,10.23,14.32,47.59359,-54.27349
2023-08-03 17:34:00+00:00,209.0,10.44,206.0,11.72,14.32,47.59359,-54.27349
2023-08-03 17:44:00+00:00,205.0,9.66,206.0,10.56,14.32,47.59359,-54.27349
2023-08-03 17:54:00+00:00,214.0,10.11,216.0,11.3,14.32,47.59359,-54.27349
2023-08-03 18:04:00+00:00,210.0,9.33,213.0,10.91,14.32,47.59359,-54.27349
2023-08-03 18:14:01+00:00,209.0,9.06,209.0,9.86,13.84,47.59359,-54.27349
2023-08-03 18:24:01+00:00,210.0,9.93,211.0,11.71,13.84,47.59359,-54.27349
2023-08-03 18:34:01+00:00,209.0,9.7,208.0,11.17,13.84,47.59359,-54.27349
2023-08-03 18:44:01+00:00,210.0,10.18,211.0,11.32,13.84,47.59359,-54.27349
2023-08-03 18:54:01+00:00,207.0,9.24,208.0,11.3,13.84,47.59359,-54.27349
2023-08-03 19:04:01+00:00,213.0,9.98,213.0,11.22,13.84,47.59359,-54.27349
2023-08-03 19:14:00+00:00,209.0,9.78,216.0,11.2,13.76,47.59359,-54.27349
2023-08-03 19:24:00+00:00,211.0,10.86,209.0,12.23,13.76,47.59359,-54.27349
2023-08-03 19:34:00+00:00,208.0,10.22,212.0,11.4,13.76,47.59359,-54.27349
2023-08-03 19:44:00+00:00,207.0,10.41,209.0,11.32,13.76,47.59359,-54.27349
2023-08-03 19:54:00+00:00,206.0,10.67,207.0,11.82,13.76,47.59359,-54.27349
2023-08-03 20:04:00+00:00,208.0,10.37,211.0,11.23,13.76,47.59359,-54.27349
2023-08-03 20:14:00+00:00,205.0,10.26,203.0,11.45,13.6,47.59359,-54.27349
2023-08-03 20:24:00+00:00,205.0,10.75,205.0,12.18,13.6,47.59359,-54.27349
2023-08-03 20:34:00+00:00,209.0,11.04,210.0,12.76,13.6,47.59359,-54.27349
2023-08-03 20:44:00+00:00,209.0,10.14,208.0,11.79,13.6,47.59359,-54.27349
2023-08-03 20:54:00+00:00,211.0,9.45,209.0,10.76,13.6,47.59359,-54.27349
2023-08-03 21:04:00+00:00,208.0,8.5,207.0,9.69,13.6,47.59359,-54.27349
2023-08-03 21:14:00+00:00,211.0,7.18,213.0,8.14,13.44,47.59359,-54.27349
2023-08-03 21:24:00+00:00,216.0,6.44,216.0,7.52,13.44,47.59359,-54.27349
2023-08-03 21:34:00+00:00,222.0,5.53,216.0,6.34,13.44,47.59359,-54.27349
2023-08-03 21:44:00+00:00,223.0,5.36,220.0,6.15,13.44,47.59359,-54.27349
2023-08-03 21:54:00+00:00,240.0,3.63,250.0,4.67,13.44,47.59359,-54.27349
2023-08-03 22:04:00+00:00,235.0,2.74,237.0,3.45,13.44,47.59359,-54.27349
2023-08-03 22:14:01+00:00,295.0,4.38,291.0,7.66,13.29,47.59359,-54.27349
2023-08-03 22:24:01+00:00,284.0,4.71,284.0,5.76,13.29,47.59359,-54.27349
2023-08-03 22:34:01+00:00,276.0,7.31,273.0,8.04,13.29,47.59359,-54.27349
2023-08-03 22:44:01+00:00,272.0,5.71,274.0,6.42,13.29,47.59359,-54.27349
2023-08-03 22:54:01+00:00,270.0,4.95,273.0,5.38,13.29,47.59359,-54.27349
2023-08-03 23:04:01+00:00,263.0,4.48,266.0,5.19,13.29,47.59359,-54.27349
2023-08-03 23:14:00+00:00,254.0,3.62,257.0,4.24,12.81,47.59359,-54.27349
2023-08-03 23:24:00+00:00,243.0,3.73,247.0,4.2,12.81,47.59359,-54.27349
2023-08-03 23:34:00+00:00,244.0,3.65,237.0,4.08,12.81,47.59359,-54.27349
2023-08-03 23:44:00+00:00,237.0,3.96,241.0,4.96,12.81,47.59359,-54.27349
2023-08-03 23:54:00+00:00,244.0,3.53,244.0,4.17,12.81,47.59359,-54.27349
